Hourly Data Report for September 23, 2017

All times are specified in Local Standard Time (LST). Add 1 hour to adjust for Daylight Saving Time where and when it is observed.

GRISE FIORD CLIMATE
NUNAVUT

76°25'22.040" N
82°54'08.020" W
44.50 m
2402351
71971
NGC

Download Data

Hourly Data (September 2017)
Hourly Data Report for September 23, 2017
Temp Definition
°C
Dew Point Temp Definition
°C
Rel Hum Definition
%
Wind Dir Definition
10's deg

Wind Spd Definition
km/h
Visibility Definition
km
Stn Press Definition
kPa
Hmdx Definition


Wind Chill Definition


Weather Definition


TIME
00:00 -1.5 -7.1 65 35 33   100.81   -9 LegendNANA
01:00 -1.5 -7.1 65 35 31   100.82   -9 LegendNANA
02:00 -2.8 -6.6 75 5 11   100.88   -7 LegendNANA
03:00 -4.0 -6.3 84 9 7   100.88   -7 LegendNANA
04:00 -2.4 -5.8 77 15 9   100.87   -6 LegendNANA
05:00 -1.8 -5.6 75 27 7   100.88   -4 LegendNANA
06:00 -3.4 -6.7 78 19 6   100.88   -6 LegendNANA
07:00 -2.5 -5.7 79 16 9   100.91   -6 LegendNANA
08:00 -2.0 -6.2 73 23 11   100.92   -6 LegendNANA
09:00 -2.8 -5.9 79 18 14   100.88   -8 LegendNANA
10:00 -1.9 -7.2 67 13 12   100.88   -6 LegendNANA
11:00 -1.4 -7.6 63 21 9   100.90   -5 LegendNANA
12:00 -1.6 -6.4 69 19 12   100.90   -6 LegendNANA
13:00 -0.6 -7.1 62 19 9   100.92   -4 LegendNANA
14:00 -0.1 -7.4 58 35 54   100.87   -9 LegendNANA
15:00 -0.4 -7.0 61 10 7   100.93   -3 LegendNANA
16:00 -0.1 -6.5 62 3 29   100.97   -6 LegendNANA
17:00 0.9 -6.6 57 36 29   100.97     LegendNANA
18:00 0.5 -6.7 58 1 26   101.01     LegendNANA
19:00 -0.1 -6.7 61 3 19   101.01   -5 LegendNANA
20:00 -0.6 -6.4 65 6 14   101.03   -5 LegendNANA
21:00 -0.1 -6.9 60 3 24   101.03   -6 LegendNANA
22:00 -0.4 -6.5 63 4 47   101.02   -8 LegendNANA
23:00 -0.6 -6.9 62 3 45   100.91   -9 LegendNANA

Notes on Data Quality.

Legend

  • E = Estimated
  • M = Missing
  • NA = Not Available
  • ‡ = Partner data that is not subject to review by the National Climate Archives
Date modified: